Location: Peach Mountain Observatory
(42.3967°N, 83.9367°W)
Time: 15:37:19
(UTC-05:00)

Explorer 7 - Pass Details

Date: 01 February 2020
Orbit: 485 x 679 km, 50.3° (Epoch: 19 February)

Event Time Altitude Azimuth Distance (km) Brightness Sun altitude
Rises 19:34:08 0° 215° (SW) 2,688 10.9 -19.5°
Reaches altitude 10° 19:36:31 10° 207° (SSW) 1,767 9.8 -20.0°
Enters shadow 19:39:41 34° 158° (SSE) 859 7.6 -20.6°
